Preview of NWS' New Version of Forecast
This preview is not operational and should not be used for support decisions.

Regional Weather Roundup (RWR)

Issued by National Weather Service (NWS)

                            
000
ASUS43 KLSX 181657
RWRMO 

WEATHER SUMMARY FOR MISSOURI
NATIONAL WEATHER SERVICE SPRINGFIELD MO
1200 PM CDT THU APR 18 2019

NOTE: "FAIR" INDICATES FEW OR NO CLOUDS BELOW 12,000 FEET WITH NO
       SIGNIFICANT WEATHER AND/OR OBSTRUCTIONS TO VISIBILITY.
       CURRENT SKY AND/OR WEATHER CONDITIONS ARE NOT AVAILABLE FOR
       CHILLICOTHE AND FARMINGTON.

MOZ001>031-035>038-043-044-053-054-181800-
...NORTHERN AND WESTERN MISSOURI...
  
CITY           SKY/WX    TMP DP  RH WIND       PRES   REMARKS
KANSAS CTY INT PTSUNNY   55  40  56 N22G31    29.87R                  
LEE'S SUMMIT   CLOUDY    53  40  61 N16G26    29.88R                  
ST JOSEPH      PTSUNNY   58  41  53 N20G29    29.88S                  
CHILLICOTHE      N/A     53  40  61 NW8G21    29.85S                  
     
$$
MOZ066>068-077>081-088>096-101>105-181800-
...SOUTHWEST MISSOURI...
  
CITY           SKY/WX    TMP DP  RH WIND       PRES   REMARKS
SPRINGFIELD    LGT RAIN  49  45  86 N22G31    29.79S                  
JOPLIN         CLOUDY    53  44  71 N15G24    29.84F                  
BRANSON        LGT RAIN  50  50 100 N16G23    29.77R FOG              
               
$$
MOZ032>034-039>042-045>050-055>058-069>072-181800-
...CENTRAL MISSOURI...  
  
CITY           SKY/WX    TMP DP  RH WIND       PRES   REMARKS
COLUMBIA       NOT AVBL                                               
JEFFERSON CITY CLOUDY    50  42  74 NW12      29.80S                  
ROLLA          RAIN      47  44  90 NW12G24   29.79R FOG              
SEDALIA        CLOUDY    48  43  82 NW15      29.85R                  
WARRENSBURG    CLOUDY    52  41  66 NW14      29.86R                  
OSAGE BEACH    CLOUDY    48  45  87 VRB5      29.83R                  
               
$$
MOZ051-052-059>065-181800-
...EAST CENTRAL MISSOURI...
  
CITY           SKY/WX    TMP DP  RH WIND       PRES   REMARKS
ST LOUIS INTL  LGT RAIN  50  46  86 NW12      29.75R                  
ST CHARLES     HVY RAIN  50  47  89 NW9       29.75R FOG              
                   
$$
MOZ072>076-082>087-097>100-106>115-181800-
...SOUTH CENTRAL AND SOUTHEAST MISSOURI...
  
CITY           SKY/WX    TMP DP  RH WIND       PRES   REMARKS
CAPE GIRARDEAU CLOUDY    64  60  87 S12       29.70S                  
POPLAR BLUFF   LGT RAIN  63  62  97 SW10      29.71S                  
WEST PLAINS    CLOUDY    61  58  90 NW7       29.72F                  
                                       
$$